KMHK

Manhattan Regional Airport

Airport
ICAO code
KMHK
Summary
ICAO Region
NAM
ICAO Territory
Location

Manhattan, Kansas,

Coordinates
39° 8' 30" N , 96° 40' 8" W
KCC
Airport CFIT
Altimeter Temperature Error Correction
Metar
KMHK 181652Z 02010G19KT 9SM OVC014 09/07 A3009 RMK AO2 RAE33 SLP190 P0000 T00940072

Description

Manhattan Regional Airport is a public use airport located 7 km southwest of the central business district of Manhattan, in Riley County, Kansas

Climatology

Humid “subtropical” climate (Köppen climate classification Cfa) - characterized by hot, humid summers and cool winters. Significant amounts of precipitation occur in all seasons with most falling during the summer. Winter snowfall is associated with large storms that the westerlies steer from west to east. Most summer rainfall occurs during thunderstorms.

Runways

Designator Length Width Surface Rops
13/31 1158 30 PEM Yes/Yes
3/21 2134 46 CON Yes/Yes

Airport map

Aerial View

SKYbrary Partners:

Safety knowledge contributed by: